STARLINK-11404, 62019

Orbit data source: Space-Track

STARLINK-11404, 62019 is a payload satellite owned by SpaceX/Seattle (US) in LEO that was launched on Mon, 18 Nov 2024 UTC via an FALCON 9 launch vehicle from the Air Force Western Test Range (AFWTR). Payload-class satellites include a variety of spacecraft equipped with specific instruments for various scientific and technological missions. These include communications satellites like Starlink; space stations such as the ISS; scientific satellites like the Hubble; Earth observation satellites from companies like Planet Labs, Umbra, and HawkEye 360; GPS; miniature CubeSats for education and research; and military/defense satellites.

Loading next visibility...
Identifier
62019, 2024-213M
Orbit
LEO
Last TLE update
1 day ago
Origin
Manufacturer
SpaceX/Seattle
Mission
Operational Commercial Communications
Bus & Motor
STARLINK V2M, Unknown motor
Mass
730 kg wet, ~700 kg dry
Launch date (UTC)
2024-11-18 (6 months ago)
Launch vehicle
FALCON 9
Launch site
Air Force Western Test Range (AFWTR)
Object type
Payload
Rocket body
Debris
Shape & HBR
Box + 2 Pan, 29 m
Radar Cross Section
36.964 m², Large (>1 m²)

Expand to show TLE details & history

TLE from 1 day ago
0 STARLINK-11404
1 62019U 24213M   25128.22380549  .00000031  00000-0  51299-5 0  9996
2 62019  53.1595 107.4376 0002367 135.8367 224.2840 15.69716053 26932
Epoch: 2025-05-08T05:22Z
Definitive object data (Epoch: 2025-05-08T05:22:16.794Z)
Latitude
-0.00003°
Longitude
160.57023°
Altitude
361.766 km
Speed
7.693 km/s
True Right ascension
07h 09m 45s
True Declination
0° 00' 00"
Sunlit
Object was in daylight at TLE epoch
Visualization TLE readout
Latitude
49.95821°
Longitude
-142.38905°
Altitude
364.871 km
Speed
7.697 km/s
Apparent Right ascension
07h 04m 33s
Apparent Declination
11° 00' 23"
Sunlit
Object is in daylight
Visualization observer readout
Local Sidereal Time
15:48:24
Azimuth
307.037° NW
Elevation
-21.78°
Doppler factor
1
Orbital elements
Apogee altitude
361.565 km
Perigee altitude
358.375 km
Semi-major axis
6,738.107 km
Eccentricity
0.0002367
Inclination
53.1595°
RAAN
107.4376°
Arg. of periapsis
135.8367°
True anomaly
224.26507°
Mean anomaly
224.284°
Eccentric anomaly
224.27453°
Mean motion
3.92407 °/min
BSTAR
0.0000051299
Orbital period
91.74 mins
Loading maneuver chart data...
Loading SW <> Apogee altitude chart data...
Loading historical data...
Loading historical data...
Loading historical data...
Loading historical data...
Loading historical data...
Loading historical data...
Loading historical data...

STARLINK-11404 Visibility forecast

Observer location: undefined°, undefined°

Span
Click to sort rows by Start time (UTC) header in descending order
Start Az.
Max El. time (UTC)
Max El. Az.
Max El.
End time (UTC)
End Az.
5 mins2025-05-09 07:50:22.279Z316.65° NNW2025-05-09 07:52:22.279Z353.769° N40.305°2025-05-09 07:55:22.279Z121.473° SE
|